Flag for U.S.A. Weather past 2 weeks in Thousand Oaks, California, U.S.A.

Now
72 °F

Clear.


Feels Like: 74 °F
Forecast: 58 / 76 °F
Wind: 20 mph from Northeast

Location: Camarillo Airport

Current Time: Jan 24, 2015 at 8:49:40 PM

Latest Report: Jan 24, 2015 at 7:55 PM


Visibility: 10 mi

Pressure: 30.04 "Hg

Humidity: 15%

Dew point: 22 °F

Location of Thousand OaksLocation

Historic Weather in Thousand Oaks — Graph

°F

Thousand Oaks temperature yesterday

Maximum temperature yesterday: 78 °F (at 1:55 PM)
Minimum temperature yesterday: 45 °F (at 6:55 AM)
Average temperature yesterday: 61 °F

Past Weeks' High & Low Weather Summary

 TemperatureHumidityPressure
High80 °F (Jan 24, 2:55 PM)100% (Jan 20, 4:55 AM)30.29 "Hg (Jan 20, 4:55 AM)
Low42 °F (Jan 15, 4:55 AM)10% (Jan 23, 1:55 PM)29.95 "Hg (Jan 20, 4:55 PM)
Average58 °F62%30.13 "Hg
* Reported Jan 9 6:55 PM — Jan 24 6:55 PM, Thousand Oaks, Weather by CustomWeather, © 2014

Note: Actual official high and low records may vary slightly from our data, if they occured in-between our weather recording intervals... More about our weather records

Advertising

Thousand Oaks weather history for previous 24 hours

 ConditionsComfort  
Time TempWeatherWind HumidityBarometerVisibility
6:55 PM
Jan 24
72 °FClear.20 mph17%30.03 "Hg10 mi
5:55 PM74 °FClear.15 mph15%30.04 "Hg10 mi
4:55 PM77 °FSunny.21 mph13%30.04 "Hg10 mi
3:55 PM78 °FSunny.21 mph14%30.04 "Hg10 mi
2:55 PM80 °FSunny.21 mph12%30.05 "Hg10 mi
1:55 PM79 °FSunny.17 mph14%30.04 "Hg10 mi
12:55 PM78 °FSunny.28 mph14%30.09 "Hg10 mi
11:55 AM76 °FSunny.33 mph14%30.11 "Hg10 mi
10:55 AM75 °FSunny.31 mph15%30.17 "Hg10 mi
9:55 AM72 °FSunny.12 mph17%30.17 "Hg10 mi
8:55 AM70 °FSunny.29 mph18%30.14 "Hg10 mi
7:55 AM68 °FSunny.29 mph17%30.15 "Hg10 mi
6:55 AM66 °FClear.20 mph19%30.18 "Hg10 mi
5:55 AM60 °FClear.12 mph25%30.15 "Hg10 mi
4:55 AM51 °FClear.3 mph41%30.12 "Hg10 mi
3:55 AM50 °FClear.No wind43%30.13 "Hg10 mi
2:55 AM58 °FClear.7 mph27%30.15 "Hg10 mi
1:55 AM54 °FClear.7 mph35%30.16 "Hg10 mi
12:55 AM58 °FClear.8 mph26%30.16 "Hg10 mi
11:55 PM
Jan 23
62 °FClear.12 mph20%30.16 "Hg10 mi
10:55 PM63 °FClear.9 mph21%30.17 "Hg10 mi
9:55 PM59 °FClear.10 mph28%30.19 "Hg10 mi
8:55 PM60 °FClear.12 mph27%30.19 "Hg10 mi
Weather by CustomWeather, © 2014

See weather overviewHow to use our weather pages